TimePST,TemperatureF,Dew PointF,Humidity,Sea Level PressureIn,VisibilityMPH,Wind Direction,Wind SpeedMPH,Gust SpeedMPH,PrecipitationIn,Events,Conditions,WindDirDegrees,DateUTC
12:53 AM,43.0,35.1,74,30.30,10.0,Calm,Calm,-,N/A,,Mostly Cloudy,0,2012-01-10 08:53:00
1:53 AM,43.0,34.0,71,30.32,10.0,North,3.5,-,N/A,,Overcast,360,2012-01-10 09:53:00
2:53 AM,43.0,35.1,74,30.35,10.0,Calm,Calm,-,0.01,,Overcast,0,2012-01-10 10:53:00
3:53 AM,41.0,32.0,70,30.36,10.0,North,4.6,-,N/A,,Partly Cloudy,350,2012-01-10 11:53:00
4:53 AM,42.1,33.1,70,30.37,10.0,North,3.5,-,N/A,,Mostly Cloudy,360,2012-01-10 12:53:00
5:53 AM,42.8,35.6,76,30.39,10.0,Calm,Calm,-,N/A,,Mostly Cloudy,0,2012-01-10 13:53:00
6:53 AM,41.0,34.0,76,30.41,9.0,Calm,Calm,-,0.00,Rain,Light Rain,0,2012-01-10 14:53:00
7:53 AM,39.0,33.1,79,30.43,10.0,NNE,6.9,-,0.04,Rain,Light Rain,20,2012-01-10 15:53:00
8:45 AM,37.4,33.8,87,30.45,10.0,Calm,Calm,-,0.01,,Overcast,0,2012-01-10 16:45:00
8:53 AM,39.0,34.0,82,30.45,10.0,Calm,Calm,-,0.01,,Overcast,0,2012-01-10 16:53:00
9:53 AM,41.0,33.8,76,30.47,10.0,NW,4.6,-,N/A,,Overcast,310,2012-01-10 17:53:00
10:53 AM,42.1,30.9,65,30.49,10.0,NW,4.6,-,N/A,,Overcast,310,2012-01-10 18:53:00
11:53 AM,43.0,28.9,58,30.50,10.0,Variable,3.5,-,N/A,,Mostly Cloudy,0,2012-01-10 19:53:00
12:53 PM,43.0,28.9,58,30.50,10.0,NW,5.8,-,N/A,,Overcast,320,2012-01-10 20:53:00
1:53 PM,44.1,30.0,58,30.51,10.0,NW,6.9,-,N/A,,Mostly Cloudy,320,2012-01-10 21:53:00
2:53 PM,44.1,30.0,58,30.51,10.0,NNW,4.6,-,N/A,,Mostly Cloudy,340,2012-01-10 22:53:00
3:53 PM,43.0,30.0,60,30.52,10.0,NW,3.5,-,N/A,,Scattered Clouds,320,2012-01-10 23:53:00
4:53 PM,41.0,28.9,62,30.52,10.0,North,3.5,-,N/A,,Partly Cloudy,350,2012-01-11 00:53:00
5:53 PM,41.0,30.0,65,30.52,10.0,North,3.5,-,N/A,,Clear,360,2012-01-11 01:53:00
6:53 PM,39.9,30.9,70,30.53,10.0,North,3.5,-,N/A,,Clear,10,2012-01-11 02:53:00
7:53 PM,37.4,32.0,81,30.54,10.0,NE,3.5,-,N/A,,Clear,40,2012-01-11 03:53:00
8:53 PM,37.9,32.0,79,30.53,10.0,NNE,3.5,-,N/A,,Clear,30,2012-01-11 04:53:00
9:53 PM,35.1,32.0,89,30.53,10.0,Calm,Calm,-,N/A,,Clear,0,2012-01-11 05:53:00
10:53 PM,35.1,30.9,85,30.52,10.0,NNW,5.8,-,N/A,,Clear,340,2012-01-11 06:53:00
11:53 PM,37.9,30.0,73,30.53,10.0,North,6.9,-,N/A,,Clear,350,2012-01-11 07:53:00